{"data":{"norad_id":54692,"epoch":"2026-05-25T05:12:17.161920Z","epoch_age_seconds":59420,"freshness":"FRESH","line1":"1 54692U 22167L   26145.21686530  .00010073  00000+0  31552-3 0  9992","line2":"2 54692  97.6918 313.8604 0007515 190.3638 169.7450 15.33278796191825","mean_motion":15.33278796,"eccentricity":0.0007515,"inclination_deg":97.6918,"raan_deg":313.8604,"arg_perigee_deg":190.3638,"mean_anomaly_deg":169.745,"bstar":0.00031552,"rev_number":19182,"period_min":93.916383879869,"perigee_km":460.89432801053,"apogee_km":471.18112262268,"semimajor_km":6844.1747253166,"source":"CELESTRAK","updated_at":"2026-05-25T13:37:58.709833Z"}}